Left ArrowRight Arrow

42.06246, -104.18439

Hourly Observations for October 10, 2022

Temp ( °F °C ) Dew Point ( °F °C ) Humidity (%) Winds ( mph kmh ) Pressure ( in mb ) Visibility ( mi km ) Precip ( " mm )
12:53 am 00:53 Clear 44 6.7 29 -1.7 55 55 ESE 10 17 30.06 1018 10 16 0.00 0.00
1:53 am 01:53 Clear 44 6.7 29 -1.7 55 55 E 6 9 30.04 1017 10 16 0.00 0.00
2:53 am 02:53 Clear 40 4.4 30 -1.1 67 67 E 9 15 30.03 1017 10 16 0.00 0.00
3:53 am 03:53 Clear 39 3.9 29 -1.7 67 67 E 3 6 30.01 1016 10 16 0.00 0.00
4:53 am 04:53 Clear 39 3.9 30 -1.1 70 70 NW 5 7 30.02 1017 10 16 0.00 0.00
5:53 am 05:53 Clear 38 3.3 30 -1.1 73 73 WNW 5 7 30.03 1017 10 16 0.00 0.00
6:53 am 06:53 Clear 34 1.1 29 -1.7 82 82 undefined N/A 30.06 1018 10 16 0.00 0.00
7:53 am 07:53 Sunny 37 2.8 31 -0.6 78 78 WNW 5 7 30.06 1018 10 16 0.00 0.00
8:53 am 08:53 Sunny 45 7.2 32 0 60 60 Calm 30.04 1017 10 16 0.00 0.00
9:53 am 09:53 Sunny 53 11.7 35 1.7 50 50 Calm 30.03 1017 10 16 0.00 0.00
10:53 am 10:53 Sunny 63 17.2 34 1.1 34 34 Calm 29.98 1015 10 16 0.00 0.00
11:53 am 11:53 Sunny 72 22.2 36 2.2 27 27 VRB 5 7 29.93 1014 10 16 0.00 0.00
12:53 pm 12:53 Sunny 77 25 32 0 19 19 SW 8 13 29.86 1011 10 16 0.00 0.00
1:53 pm 13:53 Mostly Sunny 79 26.1 27 -2.8 15 15 SW 16 26 29.81 1010 10 16 0.00 0.00
2:53 pm 14:53 Mostly Sunny 80 26.7 29 -1.7 15 15 W 18 30 29.79 1009 10 16 0.00 0.00
3:53 pm 15:53 Sunny 78 25.6 29 -1.7 16 16 W 12 19 29.77 1008 10 16 0.00 0.00
4:53 pm 16:53 Sunny 79 26.1 27 -2.8 15 15 W 16 26 29.75 1007 10 16 0.00 0.00
5:53 pm 17:53 Sunny 75 23.9 28 -2.2 18 18 W 8 13 29.75 1007 10 16 0.00 0.00
6:53 pm 18:53 Clear 66 18.9 30 -1.1 26 26 SW 6 9 29.78 1009 10 16 0.00 0.00
7:53 pm 19:53 Clear 60 15.6 32 0 34 34 W 8 13 29.79 1009 10 16 0.00 0.00
8:53 pm 20:53 Clear 59 15 30 -1.1 33 33 W 12 19 29.77 1008 10 16 0.00 0.00
9:53 pm 21:53 Clear 56 13.3 30 -1.1 37 37 W 7 11 29.75 1007 10 16 0.00 0.00
10:53 pm 22:53 Clear 53 11.7 30 -1.1 41 41 W 7 11 29.72 1007 10 16 0.00 0.00
11:53 pm 23:53 Clear 52 11.1 29 -1.7 41 41 W 7 11 29.69 1005 10 16 0.00 0.00

Powered by Vaisala Xweather